Theta_e
321 322 322 322 322 321 325 325 328 332 332 332 334 332 327 334 337 334 339 339 338 339 339 337 334 333 336 337 338 338 335 334 336 338 339 337 333 333 334 334 335 334 333 331 331 329 328 329 329 328 328 327 327 325 323 323 322 322 322 322 322 321 321 321 321 321 321 321 320 320 320 319 318 318 317 317 317 317 317 317 316 316 316 316 315 314 314 314 313 313 313 313 312 312 311 310 310
321 322 322 322 321 320 327 328 330 335 333 332 333 334 329 330 334 336 342 344 342 338 336 336 337 337 335 337 338 337 334 334 333 334 335 333 334 334 333 334 335 334 332 331 329 328 328 329 328 328 328 326 326 324 323 321 321 322 321 321 321 321 322 321 320 320 320 320 319 319 319 318 318 318 317 317 316 316 316 316 315 315 315 315 315 314 314 312 310 311 311 311 311 311 310 308 309
320 322 322 322 322 321 329 330 332 334 333 331 329 332 329 329 337 342 343 342 338 333 333 334 339 338 336 339 336 338 337 333 333 333 334 334 334 334 334 335 334 333 331 330 328 327 328 329 328 327 327 326 325 323 322 321 321 321 321 321 320 320 321 321 320 320 320 320 319 319 319 318 318 317 317 316 316 315 315 315 314 315 314 314 314 314 314 310 307 306 308 310 310 310 309 307 308
319 322 321 322 325 327 332 330 333 334 330 330 328 330 330 330 335 340 339 336 333 332 335 335 337 332 336 346 337 339 339 334 335 334 334 334 334 334 334 335 333 332 330 328 326 327 329 328 327 327 327 326 324 322 321 320 321 320 319 319 318 319 319 319 320 320 320 319 319 318 318 317 317 317 317 316 315 315 314 314 314 314 314 314 313 313 313 311 307 304 305 309 309 309 309 308 308
320 322 321 323 326 328 331 329 335 334 328 330 329 333 332 329 332 337 336 333 331 336 337 336 339 331 331 337 333 340 340 335 335 334 335 334 334 334 334 334 333 331 329 327 326 327 328 327 326 326 326 325 324 322 321 319 319 317 315 313 312 314 316 318 319 319 319 319 318 318 318 317 316 317 316 315 315 315 314 314 314 314 313 313 313 312 313 312 309 307 306 308 309 308 308 308 307
320 322 322 322 322 324 328 328 333 331 328 331 330 334 335 333 334 336 336 334 333 336 336 335 338 335 334 331 328 334 333 334 335 334 335 333 334 334 335 334 332 331 329 327 326 327 327 326 326 326 326 325 324 322 320 317 315 312 308 307 306 309 314 317 318 318 318 317 317 316 316 315 315 316 316 315 315 314 314 313 313 313 312 313 312 312 312 312 311 310 309 308 308 307 307 307 306
320 322 326 326 324 324 329 330 330 328 327 328 329 332 336 341 339 335 336 335 334 335 336 336 333 339 341 332 330 330 328 331 333 335 334 333 334 334 335 333 332 330 328 327 327 327 326 326 325 326 325 324 323 321 318 314 311 307 305 304 305 308 311 315 317 318 317 316 315 314 314 313 314 315 315 314 314 314 313 313 313 312 312 312 311 311 311 311 311 311 311 309 307 305 305 304 305
319 324 328 331 331 328 330 332 328 327 327 325 327 329 334 342 339 334 336 336 336 336 338 336 332 343 342 330 335 331 328 331 331 335 334 333 334 334 335 332 332 330 329 328 327 327 325 325 325 326 324 324 323 319 316 311 308 305 304 303 304 307 308 310 313 314 314 313 312 311 311 313 314 314 314 314 313 313 313 313 313 312 312 311 311 310 308 307 309 310 310 309 307 303 301 299 303
320 323 326 330 333 330 331 332 328 326 325 325 324 326 338 341 337 335 336 337 337 337 338 335 333 342 339 330 336 330 328 333 332 335 333 334 335 334 334 332 331 330 329 327 326 326 325 326 325 325 324 323 322 316 311 308 307 305 303 302 304 306 306 306 307 309 309 308 306 305 306 307 308 310 312 313 313 312 312 312 312 312 312 311 310 308 305 303 304 306 307 307 307 303 298 298 301
322 323 328 332 332 331 330 330 328 326 325 325 323 326 341 342 337 336 337 338 336 337 335 332 335 338 336 334 335 330 330 333 333 334 333 334 334 333 333 331 331 329 329 327 326 326 325 325 325 324 323 323 319 312 309 308 307 305 303 302 304 305 305 304 304 305 305 303 302 301 301 301 302 303 306 309 311 312 312 312 311 312 311 310 310 306 302 301 300 301 302 303 305 304 298 296 297
327 327 328 331 331 331 329 329 326 326 326 325 325 324 337 340 338 338 339 339 336 337 334 332 338 335 333 335 333 329 330 333 334 334 334 335 334 333 332 331 330 329 328 326 326 325 325 325 325 324 322 322 316 310 309 308 307 305 303 302 303 304 304 303 303 303 302 302 301 301 300 300 300 300 301 303 307 310 311 311 311 311 310 310 308 305 301 299 297 297 299 299 303 304 299 295 294
329 328 326 330 332 329 328 329 325 326 328 326 326 324 331 336 337 339 340 339 336 337 334 333 336 334 335 336 332 328 328 333 334 334 334 334 333 332 331 330 329 328 327 326 325 325 325 325 324 323 321 319 313 310 309 308 307 305 304 302 303 304 303 303 302 302 301 301 300 300 300 300 300 300 300 300 303 306 309 310 309 309 308 307 305 303 300 297 296 294 295 296 301 303 298 295 293
327 328 328 331 331 328 327 328 326 326 328 327 326 324 329 335 337 339 340 337 336 337 335 332 331 335 339 335 330 328 329 332 333 334 334 333 332 332 330 329 328 327 326 326 326 325 325 325 324 321 319 316 312 311 309 307 307 306 305 303 303 303 303 303 302 302 301 301 300 300 300 300 300 300 300 299 300 302 305 307 306 305 304 303 301 300 298 296 295 292 293 293 297 300 298 294 291
324 327 325 331 331 329 327 327 328 327 328 327 326 324 326 335 338 336 338 338 337 337 334 329 329 336 338 333 333 330 330 332 334 335 333 333 331 330 330 328 328 327 327 326 326 326 325 324 323 320 317 315 312 311 309 307 306 306 305 303 302 302 302 302 302 301 301 301 300 300 300 300 300 300 300 299 299 299 301 303 303 302 300 299 299 298 296 295 293 292 292 291 293 297 297 293 290
319 326 324 331 332 328 328 327 328 328 326 327 327 324 324 330 336 335 335 339 337 331 330 328 328 335 337 336 338 332 330 332 334 334 332 331 330 330 329 327 328 326 326 326 325 325 324 324 321 318 316 313 310 309 308 306 306 306 305 304 303 302 302 302 302 301 300 300 300 300 300 300 300 300 299 299 299 299 299 299 299 298 297 297 296 296 295 294 293 292 292 291 291 294 295 292 289
316 324 326 330 330 327 328 326 328 329 326 329 329 325 324 326 333 336 332 335 336 328 331 332 328 331 333 335 337 331 330 332 333 332 331 330 329 328 328 327 327 326 326 325 325 324 323 322 319 317 315 311 309 308 307 306 306 306 305 304 303 302 302 302 302 301 300 300 300 300 300 300 300 300 299 299 299 299 298 298 297 296 295 295 294 294 294 293 293 292 291 291 290 290 292 291 288
313 320 326 325 326 325 326 327 328 328 326 329 328 324 326 325 331 333 327 331 336 330 332 332 326 327 330 332 333 330 331 332 331 331 330 328 327 326 326 326 325 325 325 325 324 324 323 321 318 316 314 310 307 306 305 305 306 306 306 305 303 302 302 301 301 301 300 300 300 300 300 300 300 300 299 299 299 299 298 297 297 296 295 294 293 293 293 293 292 292 291 291 291 290 290 289 289
312 319 322 320 324 325 325 325 324 324 325 325 324 325 327 328 334 332 330 334 332 329 330 329 327 327 327 329 330 331 331 331 330 330 328 326 325 325 324 323 323 322 323 324 323 323 321 319 317 315 312 308 305 304 304 304 305 305 306 305 303 302 301 301 301 301 300 300 300 300 299 300 300 300 299 299 299 298 298 297 296 295 294 294 293 293 292 292 292 291 292 291 291 290 290 289 289
313 316 316 319 322 318 318 318 317 320 322 318 318 322 323 328 336 332 333 335 330 332 329 326 329 328 328 328 329 330 330 330 329 328 327 326 325 323 323 322 321 320 321 322 322 322 320 318 316 313 310 306 303 303 303 303 304 305 305 304 303 302 301 301 301 300 300 300 299 299 299 299 300 300 299 299 298 298 297 297 296 295 294 294 293 292 292 292 292 291 291 291 291 290 290 289 289
311 311 312 317 314 308 311 310 309 314 315 314 315 318 321 328 332 329 334 334 330 334 331 329 331 329 329 329 327 329 329 329 329 328 326 325 324 323 322 321 320 319 320 321 321 320 319 317 315 311 307 303 301 302 302 303 303 304 304 304 303 302 301 300 300 300 300 300 299 299 299 299 300 299 299 298 298 298 297 297 296 295 294 293 293 292 292 292 291 291 291 291 291 291 290 289 288
305 308 310 310 306 305 308 304 305 311 311 313 314 316 322 328 329 328 334 334 330 330 330 332 333 330 330 329 327 328 328 328 328 327 326 325 324 323 322 321 320 319 319 320 320 319 318 316 313 309 304 300 300 301 301 302 302 303 303 303 302 301 301 300 300 300 300 299 299 299 299 299 299 299 298 298 298 297 297 296 295 294 293 293 292 291 291 291 291 291 291 291 290 290 290 290 289
303 308 309 306 304 304 306 303 306 309 309 312 313 315 320 323 327 329 332 334 333 329 328 330 330 329 329 329 328 328 328 328 328 327 326 325 323 323 322 321 319 318 319 318 318 318 317 315 310 305 301 299 300 300 300 301 302 302 303 302 302 301 300 300 299 300 300 299 298 298 298 299 299 298 298 298 298 297 296 296 294 293 293 292 292 291 291 291 291 291 291 291 290 290 290 290 289
305 308 309 306 305 305 307 306 306 307 309 311 310 313 319 321 326 329 330 331 331 328 327 327 327 327 328 328 328 328 328 327 327 327 326 325 323 322 321 319 318 317 317 317 317 317 316 313 307 301 299 298 299 299 299 300 300 301 302 301 301 301 299 299 299 299 299 299 298 298 298 298 298 298 298 298 298 297 296 295 294 293 292 292 291 291 291 291 291 291 291 291 290 290 290 290 290
304 308 309 306 306 307 308 307 307 307 308 310 311 315 319 321 324 328 330 331 329 326 323 324 326 327 328 328 328 328 328 327 327 327 326 325 323 322 320 319 317 317 316 316 317 316 314 310 303 298 298 298 298 298 299 299 299 300 301 301 300 300 299 299 299 299 299 298 298 298 298 298 298 298 298 298 297 297 296 295 293 293 292 292 291 291 290 290 290 290 290 290 290 290 289 290 290
304 306 307 306 307 308 308 308 309 309 308 312 314 316 319 322 324 325 330 332 329 325 323 324 326 327 328 328 329 328 327 328 327 326 325 324 323 321 320 318 317 316 315 315 315 314 311 304 298 297 297 298 298 298 298 298 298 299 300 300 300 300 299 299 299 299 298 298 298 297 298 298 298 298 298 298 297 297 296 294 293 292 292 292 291 291 290 290 290 290 290 290 290 290 290 289 290
303 304 306 306 306 306 308 309 310 309 309 311 312 313 317 322 324 323 327 328 324 325 326 327 327 327 329 329 328 328 327 327 326 325 324 323 322 320 318 317 316 315 314 314 314 312 306 299 297 297 297 297 297 297 297 297 298 298 299 299 299 299 299 298 298 298 298 297 297 297 298 298 298 298 298 297 297 297 295 293 292 292 292 292 291 291 291 290 290 290 290 290 291 291 290 289 289
303 305 306 306 306 306 308 309 310 311 309 311 312 312 313 318 323 323 326 323 320 325 327 326 327 328 329 328 328 327 327 327 326 324 322 320 319 318 317 316 315 314 313 312 311 307 301 297 297 297 297 297 297 297 297 297 297 297 298 298 298 298 298 298 298 298 297 297 297 297 297 298 298 298 297 297 297 297 295 293 292 292 292 292 291 291 291 291 290 290 290 290 291 291 291 290 290
305 306 305 305 306 306 308 309 312 312 311 315 316 316 317 319 321 322 328 324 320 325 326 325 327 328 328 328 328 327 327 326 325 322 320 319 318 317 316 315 314 313 311 310 308 303 297 296 297 297 297 297 298 298 297 296 296 296 296 297 297 297 298 298 298 297 297 297 297 297 297 298 298 297 297 297 297 296 294 292 291 292 292 291 291 291 291 291 291 290 290 290 290 290 291 291 290
304 304 303 305 305 305 307 308 310 309 311 318 317 317 316 317 320 324 328 323 320 325 325 326 327 327 328 327 327 327 326 325 323 322 320 319 318 316 315 315 314 312 309 307 304 299 296 297 298 298 297 298 299 298 298 297 296 297 296 296 296 296 297 297 297 297 297 297 296 297 297 297 297 297 297 297 297 296 293 291 291 291 291 291 290 291 291 291 290 290 290 290 291 291 291 291 290
304 302 303 305 305 307 310 308 308 308 311 316 316 314 309 313 323 327 327 321 321 325 325 327 328 327 328 327 327 326 325 323 321 321 319 318 317 315 315 314 312 310 307 304 300 297 296 297 297 297 297 299 299 298 299 299 297 297 296 296 295 296 296 297 297 297 296 296 296 296 296 297 297 297 297 297 297 295 293 291 291 291 291 290 290 291 291 291 291 291 291 291 292 292 292 291 290
304 302 303 305 305 308 312 310 307 307 311 316 316 312 308 316 327 325 322 321 322 325 325 327 328 328 328 326 326 325 323 321 320 319 317 316 315 314 314 312 310 308 305 301 298 297 296 297 297 298 299 300 299 299 300 299 298 297 296 295 295 295 296 296 297 296 296 296 296 296 296 296 297 297 297 296 296 295 292 291 291 291 290 290 290 291 291 292 292 292 292 292 292 292 292 290 290
306 303 304 305 305 307 309 309 309 308 311 316 316 313 310 315 325 323 320 322 323 324 325 326 327 328 328 327 325 324 321 319 317 316 315 315 313 313 312 310 309 306 303 300 298 298 299 299 298 299 300 300 300 300 300 299 298 297 296 296 295 295 295 295 296 296 296 296 296 296 296 296 297 297 296 296 296 294 292 290 290 290 290 290 290 291 291 292 292 292 292 292 293 292 291 290 290
305 303 304 305 305 306 306 308 312 310 310 313 315 316 316 317 322 322 321 322 324 324 325 325 327 328 327 326 324 322 319 316 314 313 313 313 312 311 310 309 308 305 302 300 299 299 300 299 298 300 300 300 301 301 300 299 299 298 297 296 295 295 295 295 296 296 296 296 295 296 296 296 297 297 296 296 295 294 291 290 290 290 290 290 290 290 292 292 292 292 292 292 293 292 291 290 290
306 305 305 304 303 305 305 308 313 313 311 312 313 314 316 318 320 321 321 323 324 324 325 326 327 328 326 324 321 319 317 316 313 311 311 311 309 309 308 307 305 304 302 300 300 300 300 299 300 301 301 301 301 301 300 299 298 298 297 297 296 295 295 295 295 296 296 296 295 296 295 296 296 297 296 295 295 293 291 290 290 289 290 289 289 290 291 292 292 291 291 291 292 292 291 290 290
306 306 305 305 304 304 305 306 309 312 312 312 313 314 315 316 318 321 322 323 324 325 325 326 326 327 325 322 319 318 317 315 312 310 309 308 307 307 306 305 304 303 302 301 301 300 300 300 301 301 301 302 302 301 301 299 298 297 297 298 297 296 295 295 295 295 295 295 295 295 295 295 296 296 296 295 295 293 290 289 289 289 289 289 289 290 291 292 291 291 291 291 291 291 290 289 289
304 304 304 304 304 304 305 305 307 309 310 310 311 312 314 315 315 319 322 323 324 325 325 325 327 327 325 322 320 318 316 314 310 308 308 306 306 305 304 303 303 302 302 301 301 301 301 300 301 301 301 302 302 302 301 300 299 298 298 298 297 296 296 295 294 295 295 295 295 295 295 295 296 296 295 295 294 292 290 289 289 289 289 289 290 291 292 292 291 291 291 291 291 291 291 289 288
303 305 304 303 303 303 304 305 307 308 310 311 312 311 311 313 314 316 321 323 323 324 325 326 326 326 324 321 320 318 315 311 308 307 306 305 305 304 304 303 302 302 302 301 301 301 301 301 301 302 302 302 302 302 302 300 299 298 298 298 297 297 296 295 295 294 295 295 295 295 295 295 295 296 295 294 294 291 289 289 289 289 289 290 291 291 291 291 290 291 291 291 292 292 291 289 289
302 304 303 303 303 303 303 303 306 308 309 310 311 311 311 312 314 315 319 323 323 323 325 325 325 324 322 320 319 316 312 308 307 306 305 305 304 303 303 303 302 302 302 301 301 301 301 301 302 302 302 302 303 304 303 301 299 298 299 298 298 297 296 296 295 294 294 295 295 295 295 295 295 295 295 294 293 291 288 289 289 289 289 290 290 290 290 290 290 290 291 291 292 291 290 288 288
303 303 303 303 303 303 303 303 303 306 308 309 309 309 310 312 314 315 317 321 322 322 323 324 324 322 320 319 317 313 310 308 306 306 305 305 303 303 303 303 302 302 302 301 301 301 301 301 302 302 302 302 303 304 304 302 299 299 299 298 298 297 296 296 295 295 294 295 295 295 295 295 295 295 294 294 293 290 288 288 288 289 289 289 289 289 290 290 290 290 290 291 291 290 288 287 287
304 304 304 304 303 303 305 306 305 306 308 309 310 309 309 312 314 315 317 320 321 322 322 323 323 322 320 318 315 312 310 308 307 306 305 304 303 303 303 303 302 302 302 302 302 302 302 302 302 302 302 302 302 302 303 302 299 299 300 298 298 297 297 296 296 295 294 294 295 295 295 295 294 295 294 293 292 289 288 288 288 288 288 288 289 289 290 290 290 290 290 290 291 290 287 286 286
304 304 304 304 303 302 304 305 305 308 309 309 309 309 309 311 313 314 316 319 321 321 322 323 323 321 319 317 313 311 309 308 307 306 305 305 304 303 303 303 303 302 302 302 302 302 302 302 302 302 302 303 302 301 301 301 300 300 300 298 297 297 296 296 296 295 294 294 295 295 295 294 294 295 294 293 291 288 287 288 288 288 288 288 289 289 290 290 289 289 289 290 291 289 286 286 286
305 304 304 304 303 302 303 304 305 307 308 309 309 308 309 311 313 314 317 319 320 321 322 322 322 320 318 316 313 311 309 308 307 306 305 305 304 303 303 303 303 302 302 302 302 302 302 302 302 302 302 302 302 301 301 301 300 300 299 298 297 297 296 296 296 296 295 295 295 295 295 294 294 295 294 293 291 288 287 287 287 288 288 288 289 289 289 289 289 289 289 289 290 288 286 286 285
307 307 306 304 303 303 304 305 305 307 307 309 309 308 309 313 314 314 316 319 319 321 322 322 321 320 318 316 314 311 309 308 308 306 305 305 304 304 303 303 303 303 302 302 302 301 302 302 302 302 302 302 301 300 301 301 300 300 299 298 298 297 296 296 296 296 296 295 295 295 295 294 294 294 294 293 291 289 287 287 287 287 287 288 288 288 288 289 288 289 288 289 289 287 287 286 285
309 310 309 306 304 304 304 305 306 307 308 308 309 309 309 312 314 315 316 318 319 321 322 322 321 320 318 316 314 311 309 309 308 306 306 305 305 304 304 303 303 303 303 302 301 301 301 302 302 302 302 302 301 300 302 302 300 300 300 298 298 297 296 296 296 296 295 295 294 295 294 294 294 294 294 293 292 289 286 286 287 286 287 287 288 288 288 288 288 288 288 288 288 287 286 286 285
310 310 310 307 305 305 305 305 307 307 308 310 309 309 309 311 315 317 317 318 319 320 321 322 321 319 318 316 314 311 309 308 307 306 306 306 305 304 304 303 303 303 303 302 302 301 301 301 302 301 301 301 301 301 302 301 300 300 300 298 298 297 296 296 296 296 296 295 294 295 294 294 293 293 294 293 292 289 286 286 286 286 286 287 288 288 288 288 287 287 287 288 288 286 286 285 285
309 309 309 308 306 305 306 306 308 308 309 310 310 310 309 311 316 318 318 318 318 320 321 322 321 319 318 316 314 311 309 308 307 307 307 306 305 304 304 303 303 303 302 302 302 301 301 301 301 302 302 301 301 301 301 301 300 300 300 299 298 298 296 296 296 296 296 295 295 295 295 294 293 293 293 293 292 289 286 286 286 286 286 287 288 287 287 287 287 287 287 287 287 286 285 284 284
308 308 310 311 308 307 308 308 309 310 311 311 311 310 310 313 316 318 318 318 317 320 322 322 321 319 318 316 313 311 310 308 308 307 307 307 305 304 304 304 303 303 303 302 302 301 301 302 301 302 302 301 301 301 301 300 300 300 300 299 299 298 297 296 296 297 296 295 295 295 295 294 294 293 293 293 292 289 286 285 285 285 286 287 288 288 287 288 287 287 287 287 286 285 284 284 284
308 309 311 313 313 311 311 311 311 311 313 313 312 312 311 313 317 318 317 317 318 320 322 322 322 320 318 316 313 311 310 309 308 308 307 306 305 304 304 304 303 303 303 302 302 301 301 301 301 301 301 301 301 301 300 300 300 300 300 299 299 299 297 296 296 297 297 296 296 296 295 295 294 294 294 293 292 290 286 284 285 285 286 287 288 288 287 288 287 286 286 287 286 285 284 284 284
308 309 311 314 315 314 314 314 314 313 313 314 313 313 313 313 318 319 317 318 320 321 321 321 321 320 318 317 314 312 311 309 308 308 307 306 306 305 304 304 303 303 303 302 302 302 301 301 301 301 301 301 301 300 300 300 300 300 300 299 299 299 298 296 297 298 297 297 297 297 296 296 296 295 294 294 292 290 287 284 285 285 286 288 288 288 288 289 288 286 286 287 286 285 284 284 284
310 310 312 315 316 316 316 316 316 316 316 316 314 314 316 317 318 319 318 319 320 320 321 322 321 320 319 316 314 312 311 310 309 308 307 306 306 305 304 304 303 303 303 302 302 302 301 301 301 301 301 300 300 300 300 300 300 300 299 299 299 299 298 297 297 298 297 296 297 298 297 296 296 295 295 294 292 291 288 285 285 285 285 288 289 288 288 289 288 286 286 287 287 286 284 284 284
310 311 311 315 316 316 318 318 318 319 318 317 315 314 318 319 317 316 317 316 316 319 321 322 321 319 318 316 314 313 311 310 310 309 308 307 306 305 305 304 303 303 303 302 302 302 301 301 301 301 301 300 300 300 300 300 300 300 299 299 299 299 299 298 298 298 298 296 296 298 298 296 296 295 294 294 293 291 288 285 284 284 285 288 289 288 289 290 288 286 286 287 287 286 285 284 283
310 309 311 314 313 313 316 317 317 318 319 319 317 317 317 317 315 314 315 315 316 319 321 321 320 319 317 316 314 313 312 311 310 310 308 307 306 305 305 304 303 303 303 302 302 302 302 301 301 301 301 300 300 300 300 300 300 300 299 299 299 299 299 298 298 299 298 297 296 298 299 297 296 294 294 294 293 292 289 285 284 284 285 288 289 289 290 290 288 286 287 287 287 286 285 284 283
310 310 312 311 308 309 315 318 316 317 320 319 318 319 317 316 315 313 314 318 319 319 320 319 319 318 318 317 315 314 313 311 311 310 309 308 307 305 304 304 303 302 302 302 302 302 302 302 301 301 301 300 300 300 300 301 300 299 299 299 299 299 299 298 298 299 299 298 296 297 298 297 295 294 294 294 293 292 289 286 284 284 286 288 289 289 291 290 289 287 287 287 287 287 286 284 283
309 310 310 308 308 309 312 318 319 319 320 318 317 318 316 317 317 314 314 318 318 317 318 319 319 319 318 318 316 315 313 312 311 310 309 307 306 305 304 304 303 303 302 302 302 302 302 302 301 301 301 301 301 301 301 301 300 299 299 299 299 299 299 298 299 299 299 299 297 297 298 297 295 294 294 294 293 292 290 286 283 283 286 289 289 290 291 291 289 288 288 288 287 287 287 285 283
307 308 307 307 311 313 312 316 320 320 321 319 317 317 316 317 316 313 312 313 314 316 318 318 319 319 319 318 317 316 314 313 312 311 309 307 306 306 305 304 303 303 303 302 302 302 302 302 302 301 301 301 301 301 301 300 300 299 299 299 299 300 299 299 299 299 299 299 298 297 298 298 296 294 294 294 294 292 291 287 284 283 287 289 289 290 292 291 290 289 289 289 288 288 287 285 284
307 306 306 307 309 311 311 312 314 316 320 319 317 318 318 315 313 312 310 308 309 312 317 319 319 318 318 317 317 317 315 314 312 311 310 308 306 306 305 305 304 303 303 303 303 302 302 302 302 302 302 302 302 302 301 301 300 299 299 299 299 299 299 299 299 299 300 300 298 297 298 298 296 295 294 295 294 293 291 288 284 284 287 290 290 291 292 292 291 290 289 289 289 289 288 286 284
307 306 305 305 306 308 310 310 308 311 318 320 319 319 316 312 311 310 307 306 306 307 313 318 319 317 318 317 317 317 316 315 313 312 311 309 307 307 306 305 304 304 303 303 303 303 302 302 302 302 302 302 302 303 302 301 300 300 299 299 299 299 299 299 299 300 300 300 299 297 298 298 296 295 295 295 294 293 292 289 285 285 288 290 290 292 292 292 291 291 290 290 290 290 289 287 286
306 306 305 304 305 307 311 313 310 309 313 315 317 320 317 310 309 308 304 304 307 307 311 317 319 318 318 318 318 317 316 316 315 314 312 309 308 307 306 306 305 304 303 303 303 303 302 302 302 302 303 303 304 303 301 301 300 300 300 300 299 299 299 299 299 300 300 301 300 297 297 298 296 295 295 295 294 293 292 290 285 285 289 290 291 292 293 292 292 291 291 290 290 290 289 288 287
Wind_Speed
10 9 8 6 3 1 2 5 0 2 1 2 3 2 3 3 1 1 0 1 1 1 2 3 8 8 5 4 7 4 2 6 5 4 3 2 16 31 29 29 32 31 30 27 25 23 22 21 19 18 17 16 16 15 15 16 16 16 16 16 16 16 16 15 15 16 16 16 16 16 16 16 16 16 16 16 16 17 17 17 18 18 18 18 18 18 18 18 18 19 19 18 18 18 18 18 19
11 9 8 4 2 1 1 2 1 2 1 5 3 3 3 2 1 3 4 4 2 2 2 5 8 5 3 5 6 3 2 1 2 2 1 11 22 25 28 32 33 32 31 28 26 24 23 21 19 19 17 17 16 16 15 16 17 16 16 15 16 16 16 15 15 15 15 16 15 16 16 16 16 16 16 16 16 16 17 17 17 17 18 17 17 18 18 18 18 18 18 18 18 18 18 18 18
12 10 9 3 1 2 1 2 2 2 4 7 3 2 1 0 3 5 5 5 3 4 5 7 7 4 4 4 3 2 1 1 3 2 4 19 19 20 31 32 33 33 31 29 26 26 25 22 21 20 18 17 16 16 16 16 17 16 15 15 15 15 16 16 15 15 15 15 15 16 16 16 16 16 16 16 16 16 16 17 17 17 17 17 17 18 18 18 18 17 17 18 18 17 17 17 17
10 9 10 5 1 3 3 1 2 4 6 5 3 3 2 3 5 3 2 3 6 4 3 6 5 2 2 3 2 2 2 2 3 1 7 18 17 26 34 33 34 32 31 29 27 27 25 23 22 21 19 18 17 16 17 17 17 16 15 15 14 15 15 16 16 16 16 15 16 15 15 15 15 16 16 16 16 16 16 17 17 17 17 17 17 17 18 18 17 17 17 17 17 17 17 17 17
8 6 8 5 2 1 2 1 2 4 7 4 2 4 3 5 4 2 3 5 6 1 0 5 4 1 1 2 1 1 2 4 4 3 10 17 22 32 35 34 35 32 31 28 27 28 26 24 23 21 19 18 17 17 17 17 16 16 15 14 14 14 16 16 16 16 16 15 15 15 15 15 15 15 16 16 16 16 17 17 17 17 17 17 17 17 17 17 17 17 17 17 17 17 17 17 17
5 3 5 5 2 1 2 1 2 5 5 4 3 3 3 4 3 4 5 4 2 2 1 2 3 3 2 0 1 1 0 4 5 7 14 20 27 34 35 36 34 32 31 28 28 27 26 25 23 21 19 18 17 17 17 16 16 15 14 13 13 14 15 17 17 16 15 14 14 14 15 14 14 15 15 15 16 16 16 16 17 16 17 17 17 17 17 17 17 17 17 17 16 16 17 16 16
4 2 3 4 1 1 2 4 4 5 4 5 4 3 4 4 3 6 6 4 2 2 2 1 4 6 2 0 2 1 1 3 6 10 17 24 30 34 36 36 33 33 31 29 29 27 26 25 23 21 20 19 17 17 17 16 15 14 14 13 13 14 15 16 16 16 15 14 14 14 14 14 15 15 15 15 15 16 16 16 16 16 17 17 17 17 16 16 16 17 17 17 16 16 16 16 16
2 1 1 3 1 2 1 4 5 4 4 4 4 5 6 5 5 8 7 4 2 1 3 4 3 4 0 1 2 1 2 4 6 13 21 27 31 33 35 35 34 33 31 30 29 27 26 24 23 21 20 19 18 17 17 16 15 14 14 14 13 13 14 15 15 15 14 14 13 13 13 14 15 15 15 15 15 15 15 16 16 16 16 16 17 16 15 15 15 16 17 17 16 15 15 14 15
2 1 0 2 1 1 1 3 4 4 4 4 4 4 4 5 7 8 8 3 1 1 4 6 3 2 3 3 1 1 2 5 11 18 25 29 31 32 33 34 34 33 32 31 29 28 26 25 24 21 21 19 18 18 17 16 15 15 14 13 13 13 14 14 14 14 13 12 11 11 11 12 12 13 14 15 15 15 15 15 15 15 16 16 16 15 14 14 14 15 15 16 15 14 14 14 14
1 2 1 1 1 3 4 4 4 3 3 4 5 4 3 5 7 8 9 4 2 3 3 3 2 3 6 5 1 1 4 9 20 24 27 30 31 32 32 32 33 33 33 31 30 28 27 25 24 22 21 19 18 18 17 16 15 15 14 13 13 13 13 13 13 13 12 11 10 9 9 9 9 10 12 13 14 15 15 15 15 15 15 15 16 15 14 14 14 14 14 14 14 14 13 13 14
1 2 2 1 2 6 6 6 7 3 2 2 4 4 4 6 7 5 5 3 3 4 4 1 3 5 5 3 1 1 5 14 26 28 29 31 31 31 31 31 31 32 33 32 30 29 27 26 24 23 21 19 19 19 17 16 15 15 14 13 13 13 13 12 12 11 10 9 9 9 8 8 8 8 9 10 13 14 15 15 15 15 15 15 15 13 13 13 13 13 12 12 13 14 13 13 13
1 1 2 3 5 6 5 6 8 5 3 1 2 4 4 6 6 6 6 5 5 5 5 4 4 6 5 2 1 0 4 15 27 29 30 31 30 31 31 31 31 31 32 31 31 29 28 26 25 23 21 21 19 19 18 17 16 15 14 13 13 13 12 11 11 10 9 9 8 8 8 7 7 7 7 8 10 12 13 14 14 14 13 13 12 12 12 12 11 11 11 11 13 13 12 12 12
1 2 3 3 3 4 4 4 5 4 5 3 4 3 4 6 5 8 8 5 6 5 5 5 5 5 4 2 1 1 4 15 28 29 30 31 30 32 31 31 31 30 31 31 31 29 28 27 26 23 22 22 20 19 18 17 16 15 14 13 13 12 11 10 10 9 9 9 8 8 7 7 7 7 7 7 7 9 11 11 11 11 11 11 10 10 11 10 10 9 9 10 12 12 12 11 11
0 2 3 3 1 3 5 4 3 5 6 3 4 2 2 4 5 7 8 6 7 6 3 6 7 3 3 2 1 3 6 17 30 30 31 32 31 32 31 32 31 31 31 31 31 30 29 28 26 25 24 23 21 20 19 17 16 15 14 13 12 11 11 10 10 10 9 9 8 7 7 7 7 7 7 6 6 7 8 9 9 9 9 10 10 9 9 9 9 8 8 9 10 11 11 11 10
0 2 2 2 2 2 5 5 4 5 5 3 5 4 3 3 2 5 6 7 6 3 3 7 6 2 4 8 4 8 14 22 32 31 32 32 31 33 32 32 31 31 31 31 31 30 30 28 26 26 25 24 22 21 19 18 16 15 14 12 12 11 11 10 10 9 9 8 7 7 7 7 7 7 7 6 6 6 6 7 8 8 9 9 8 8 9 8 8 7 7 8 9 10 11 11 10
1 2 1 2 3 3 3 3 3 4 5 4 5 4 5 5 1 3 4 3 3 1 2 4 3 0 5 7 6 17 23 26 34 35 33 31 31 33 31 31 31 31 31 30 30 30 29 28 27 27 26 24 22 21 20 18 16 15 13 12 11 11 11 10 10 9 9 8 7 6 6 6 7 7 7 7 6 6 6 6 7 8 8 8 8 7 8 8 8 7 6 7 9 9 10 10 10
2 2 1 4 3 3 3 2 3 3 3 3 5 4 7 6 1 1 1 3 5 2 2 0 0 2 2 2 13 29 29 28 37 38 34 31 31 33 31 30 31 30 30 30 30 29 29 28 27 27 25 24 22 20 19 17 16 14 13 12 11 11 11 10 10 10 9 8 7 6 6 6 7 7 7 7 6 6 7 7 7 8 8 8 8 7 7 7 8 8 7 6 9 10 9 9 10
2 1 2 4 2 2 1 0 1 1 2 5 6 3 6 7 2 2 1 5 4 3 3 2 3 3 1 8 24 32 31 33 38 38 35 31 29 31 30 29 29 29 29 30 29 29 28 28 27 27 25 23 21 19 18 16 15 14 13 12 12 11 11 10 10 10 9 8 7 6 6 7 7 8 8 7 7 7 7 7 7 7 8 8 7 7 7 7 8 9 8 7 8 10 10 9 10
1 2 1 3 1 2 1 4 5 4 5 8 9 6 4 6 4 4 5 1 4 5 1 2 3 3 5 14 26 30 31 35 36 36 33 30 30 31 30 27 28 28 28 30 29 29 29 28 27 26 25 22 21 19 17 16 15 14 13 12 12 11 11 10 10 10 9 7 6 6 7 8 8 8 8 7 7 7 7 7 7 8 8 8 7 7 7 8 9 9 9 8 8 9 10 10 10
0 1 1 2 2 5 2 6 6 4 6 8 9 8 7 6 3 2 5 5 8 9 6 5 4 5 8 12 23 29 29 30 32 32 30 29 30 31 31 29 29 29 29 30 30 29 28 28 27 25 23 22 20 19 18 17 15 14 13 12 11 11 10 10 10 9 8 7 6 7 7 8 8 8 8 7 7 7 7 7 8 8 8 8 7 7 7 8 9 10 10 9 8 8 9 10 10
1 1 2 3 4 4 5 7 6 4 6 6 8 8 7 6 4 3 4 6 6 8 9 10 12 12 11 11 19 27 26 26 27 28 28 27 28 30 32 33 32 31 30 31 30 30 28 28 27 24 23 22 20 19 18 17 16 15 14 12 11 10 10 10 10 9 8 7 7 7 7 8 8 8 7 6 7 7 7 8 8 8 8 7 7 7 8 9 9 10 10 9 8 8 8 9 10
2 1 2 3 3 3 9 9 6 5 6 6 7 7 7 7 4 3 5 7 6 6 10 12 14 16 16 15 19 22 22 23 24 26 27 27 28 30 31 32 31 31 32 32 30 30 29 27 26 25 24 22 20 19 18 17 15 14 13 12 11 11 10 10 10 8 7 6 6 7 7 7 7 7 7 7 7 7 7 8 8 8 7 7 8 8 8 9 10 10 10 9 9 8 8 8 9
2 3 2 3 2 2 8 9 8 6 5 6 6 6 5 8 7 3 5 8 4 2 6 6 7 16 24 25 21 17 18 22 24 29 31 30 31 31 32 31 31 32 33 32 32 31 28 27 26 25 24 23 21 19 17 16 15 13 13 12 10 11 10 9 9 8 7 6 6 7 7 7 7 7 7 7 8 7 7 8 8 7 7 7 8 8 9 10 11 11 11 10 9 8 7 7 7
2 3 5 4 2 3 6 8 10 8 6 7 5 5 5 7 8 2 3 8 5 5 4 3 7 14 21 22 21 19 23 27 28 31 32 33 33 34 35 34 33 33 32 33 33 31 29 28 26 25 24 23 21 19 17 16 15 13 12 11 10 10 9 9 9 8 7 6 6 6 6 7 8 8 8 8 8 7 7 8 8 7 7 7 7 8 8 9 10 11 11 10 8 8 7 6 6
2 3 4 3 3 5 7 8 10 10 7 6 6 6 7 7 6 3 6 8 4 3 2 6 9 12 14 15 19 21 23 26 26 26 26 27 30 32 33 34 34 33 33 35 34 32 31 29 28 26 24 22 21 19 18 16 15 13 12 10 9 9 8 8 8 7 6 6 6 6 6 7 8 9 9 9 8 7 7 8 7 7 7 7 7 7 7 8 9 10 10 10 9 9 8 7 5
2 2 4 4 6 6 7 7 9 11 6 5 8 9 9 6 3 5 8 7 3 1 2 6 10 10 12 14 17 19 19 21 24 24 23 24 28 31 31 33 35 33 34 36 35 34 32 31 29 26 23 22 20 19 18 17 15 14 12 10 9 8 7 8 7 7 6 6 6 6 6 8 9 10 10 10 8 7 7 7 7 7 7 6 7 7 7 7 8 9 10 11 10 10 9 8 5
2 3 5 6 8 7 5 6 8 10 7 6 8 11 11 6 4 5 5 4 3 3 5 7 11 11 12 13 14 17 18 21 26 25 23 23 26 29 30 32 33 32 34 35 35 35 34 33 30 27 25 22 20 19 17 16 15 14 12 10 9 8 7 7 7 6 6 6 6 6 6 8 9 10 10 9 8 7 7 7 7 6 6 6 7 7 8 8 8 9 11 11 11 11 10 9 5
3 4 6 7 8 6 5 6 7 6 6 6 5 9 11 5 6 7 4 3 4 4 6 8 10 11 13 13 11 13 16 20 25 25 24 25 27 30 31 33 34 34 34 36 36 36 35 34 31 28 25 22 19 18 16 15 15 13 11 10 9 8 7 6 6 6 6 5 6 6 7 8 9 10 10 9 8 7 7 6 6 6 6 7 7 8 9 9 9 9 10 11 11 10 10 9 6
3 1 4 8 6 6 7 6 7 6 4 4 3 7 12 9 6 5 5 4 4 4 6 8 10 11 11 11 10 10 13 18 21 22 25 26 28 30 31 33 36 36 34 34 36 36 36 34 31 29 25 23 20 18 16 15 13 11 10 9 8 7 7 6 5 5 5 6 6 6 7 8 9 10 10 9 8 7 6 6 6 6 7 8 8 9 8 8 8 7 8 10 10 9 9 9 6
4 1 1 6 6 6 7 5 7 7 6 5 2 7 11 10 7 6 6 5 6 5 7 8 8 10 10 9 8 7 11 17 18 20 22 24 26 29 30 29 31 35 34 34 36 36 36 34 32 30 27 24 21 18 17 14 12 10 9 8 7 7 6 5 4 5 5 6 5 6 7 8 9 10 10 9 8 7 6 6 6 6 8 8 8 8 7 7 6 6 7 9 10 9 9 8 5
4 3 1 1 3 5 5 3 3 4 6 6 6 8 9 5 4 5 7 8 9 7 9 9 6 8 9 8 8 6 8 14 17 19 20 22 25 27 28 27 26 30 33 35 36 36 35 34 34 32 28 25 21 19 17 14 12 10 9 8 7 6 6 4 4 4 4 5 5 6 7 8 9 10 10 8 7 6 5 5 5 7 8 8 8 8 7 6 6 7 7 9 10 10 10 9 6
1 2 3 1 2 4 7 6 3 5 6 4 8 8 6 5 5 5 6 7 10 9 10 10 7 9 11 8 8 7 7 12 16 19 21 22 24 25 26 28 29 30 31 34 35 34 34 33 33 30 27 24 22 19 16 14 12 10 8 7 6 6 5 4 4 3 4 5 5 6 7 8 9 10 9 8 7 5 5 5 6 7 8 8 8 7 7 7 8 8 8 10 11 11 10 9 6
1 2 3 3 3 4 5 6 4 6 5 3 9 6 2 4 4 5 7 7 9 9 10 11 9 10 11 8 8 7 6 9 13 18 23 23 24 25 26 28 31 30 31 34 34 33 34 33 31 30 28 25 22 20 17 15 13 10 8 7 7 6 6 5 4 3 3 4 5 5 7 8 9 10 9 8 6 5 4 5 6 7 7 8 7 7 7 9 9 9 10 11 12 12 11 10 7
2 1 3 3 4 3 4 5 4 3 4 6 9 8 5 4 2 3 7 8 9 8 9 10 9 9 8 7 8 7 5 6 9 16 23 24 24 25 25 27 28 29 31 33 33 33 35 33 31 29 27 25 23 20 17 16 15 12 9 8 8 7 7 6 4 3 2 3 4 5 6 7 8 9 9 7 5 5 4 4 5 6 7 7 7 7 8 10 10 10 11 11 12 13 13 11 8
3 4 3 3 4 5 6 6 4 1 3 6 7 8 9 9 6 3 5 8 8 7 8 9 9 10 8 8 10 9 8 8 10 17 23 24 25 25 25 26 27 28 29 31 32 34 35 33 30 29 27 25 23 20 18 16 16 14 11 9 9 9 8 7 5 4 2 2 3 4 6 6 8 8 8 7 5 4 4 4 5 6 6 6 6 7 8 9 10 11 12 11 12 13 15 13 8
6 4 4 4 4 6 6 7 5 2 3 6 7 8 8 9 11 7 5 7 7 7 7 8 9 9 8 8 9 10 9 8 12 19 22 23 25 26 27 27 27 29 29 31 32 32 33 32 29 28 27 25 23 20 19 17 16 14 12 12 12 11 9 8 7 5 3 2 2 3 5 6 7 8 8 6 5 4 3 4 5 5 6 6 6 6 8 10 11 12 12 11 11 11 14 14 8
4 2 3 5 5 7 6 5 5 2 1 5 6 8 7 8 11 9 7 7 7 8 8 8 8 7 7 7 7 8 7 8 14 20 22 23 24 26 27 27 28 29 29 30 31 31 32 32 29 28 27 25 24 22 20 18 18 16 14 15 15 12 11 10 8 7 5 3 1 2 4 5 6 7 7 6 4 3 2 3 4 5 5 6 7 8 9 10 11 12 12 11 11 11 14 17 12
5 4 5 6 7 9 8 7 6 2 1 5 6 7 7 8 9 9 9 7 8 10 9 8 9 7 7 9 7 7 6 8 13 16 19 23 24 26 27 28 30 31 30 31 31 32 32 30 29 28 26 25 23 22 19 18 19 17 15 17 16 14 12 11 9 8 6 4 2 1 2 4 5 6 6 5 3 2 2 3 4 5 5 7 8 9 9 10 11 12 12 12 13 14 15 16 15
7 6 5 7 5 5 8 7 6 2 2 5 8 8 7 8 9 9 10 9 8 10 9 9 9 7 8 10 9 8 8 8 9 11 16 22 23 26 27 27 29 31 31 31 31 32 31 29 29 28 26 25 23 21 20 19 18 16 15 16 16 14 12 12 10 8 7 5 3 1 1 3 4 5 5 4 2 1 2 3 3 4 5 7 8 8 8 9 11 11 13 13 13 14 14 15 16
7 6 6 9 6 3 5 5 2 3 5 5 6 5 6 7 8 9 9 8 7 7 8 9 9 9 9 10 10 10 11 11 10 10 13 19 22 24 25 26 28 29 30 31 31 32 32 31 30 29 27 24 23 21 19 19 18 17 16 15 15 14 12 12 11 10 9 7 4 3 1 1 3 4 4 3 2 1 1 2 3 4 5 6 7 7 8 9 11 11 13 13 13 14 13 14 14
8 9 9 11 8 6 7 4 2 1 3 6 4 4 5 5 7 8 6 7 7 6 7 8 8 7 7 9 9 9 9 10 12 11 12 17 21 23 25 26 27 29 30 31 32 33 32 32 31 29 27 25 24 21 19 20 19 18 17 15 15 14 13 13 14 13 11 9 7 5 3 1 1 3 3 2 1 0 1 2 3 3 4 6 7 7 8 9 10 11 13 13 13 14 12 11 12
6 10 13 15 10 7 8 3 3 3 3 5 5 2 4 4 8 9 5 7 9 7 7 8 7 7 8 9 9 8 8 8 10 11 13 16 20 21 23 26 27 28 29 30 31 31 32 32 31 29 28 27 26 23 21 22 20 19 19 18 18 17 17 17 16 14 12 10 8 6 4 2 1 1 2 1 0 0 1 2 2 3 5 6 7 7 8 9 10 11 13 13 13 13 11 10 11
5 5 13 16 11 8 8 3 2 2 3 2 5 4 3 2 6 9 8 10 11 8 7 7 7 7 8 9 9 8 8 8 8 9 12 16 20 21 22 26 27 27 28 28 29 30 31 32 31 30 29 28 26 25 23 23 22 21 21 21 20 18 19 19 16 13 11 9 9 8 6 3 2 1 1 1 0 0 1 1 2 3 5 6 7 7 7 9 10 11 12 12 12 12 10 11 11
4 1 8 12 11 11 9 6 5 4 3 2 5 6 3 3 5 7 10 11 12 10 9 8 7 8 8 9 10 8 8 9 9 10 12 16 21 21 22 27 28 27 27 28 29 30 30 31 31 30 29 28 27 26 25 24 23 22 22 23 21 18 18 18 14 12 11 10 10 9 7 5 4 2 2 1 1 1 1 1 1 3 5 6 6 6 7 9 10 11 11 11 11 11 10 11 11
4 1 4 8 9 9 7 6 6 5 3 3 5 6 3 4 3 5 10 12 13 13 13 10 9 9 9 8 9 8 9 11 12 11 13 17 21 20 22 27 27 26 28 29 29 30 29 30 30 29 28 28 28 27 26 25 24 23 23 24 21 19 19 17 15 13 13 12 11 11 9 7 5 4 3 2 2 3 2 1 1 3 4 5 5 6 7 8 9 10 10 11 10 10 10 11 11
2 3 2 4 4 5 5 5 5 4 4 5 5 7 4 3 2 5 9 11 12 11 11 11 10 11 10 9 9 9 10 11 11 12 15 19 21 22 22 24 24 24 27 28 28 29 29 29 29 29 29 28 29 28 27 26 25 24 25 24 23 21 20 18 16 14 14 14 13 13 11 8 7 6 5 4 4 4 3 2 1 3 3 4 4 5 6 7 8 9 9 10 10 10 10 11 11
2 2 2 3 3 4 4 4 4 3 4 5 6 9 6 2 2 6 7 9 11 10 9 9 9 9 10 10 10 10 10 10 10 11 15 17 19 21 23 24 25 26 27 28 28 29 30 30 31 31 30 30 29 28 28 27 27 27 26 25 25 24 22 20 18 17 17 16 15 14 12 10 9 8 7 5 5 5 4 2 1 2 2 3 3 4 5 5 7 8 9 10 9 10 10 11 11
5 2 2 2 2 3 2 3 3 3 4 4 6 11 8 4 3 5 6 7 10 10 9 11 11 10 10 10 10 11 10 10 9 9 11 14 16 20 23 23 25 26 27 29 29 29 30 30 31 30 30 31 31 29 29 29 29 29 27 27 27 25 23 21 20 19 18 18 17 15 13 12 11 9 8 7 6 6 5 3 1 1 1 2 2 3 3 4 6 7 8 9 9 9 10 10 10
4 2 2 2 1 1 2 2 2 3 4 3 5 9 6 4 4 4 7 7 9 9 9 12 14 14 13 11 11 10 8 9 9 8 9 12 16 20 22 22 24 26 27 28 28 29 30 30 31 31 31 31 32 31 31 31 30 30 29 28 27 26 24 23 21 20 19 18 17 16 15 13 11 9 8 8 7 7 6 4 2 2 1 1 1 1 2 4 5 6 7 8 8 9 9 9 9
3 3 2 2 2 1 2 2 2 3 3 1 5 5 2 2 2 4 7 6 4 5 7 9 10 10 11 10 10 9 9 9 9 9 9 11 15 19 21 23 25 26 27 28 29 30 31 31 32 32 31 31 31 31 31 30 30 30 29 29 28 27 26 24 22 21 20 19 18 16 15 13 11 9 7 7 8 8 7 5 4 3 2 1 1 1 2 3 4 4 6 7 7 8 8 8 8
2 2 2 2 1 1 2 2 1 1 1 2 6 4 2 2 1 3 5 3 1 0 3 7 7 7 8 8 9 9 9 9 8 9 10 12 17 21 22 24 26 26 28 29 30 30 31 32 33 33 32 31 31 31 31 30 31 30 29 28 28 27 26 25 23 22 21 19 18 17 15 14 12 9 7 8 9 9 8 7 6 4 3 2 2 2 2 3 3 3 4 6 7 8 8 8 8
1 1 2 2 1 0 2 2 2 1 1 2 4 2 1 1 0 4 2 1 2 2 5 8 9 9 10 9 9 9 9 9 8 8 9 12 18 21 22 25 26 27 28 29 30 31 31 32 33 34 33 31 31 31 31 31 31 30 29 28 28 27 28 26 25 24 23 20 18 17 15 14 13 11 9 9 10 10 9 8 7 5 4 4 4 3 2 2 2 2 3 5 6 7 7 7 7
1 2 1 2 1 1 2 2 2 1 1 0 1 0 2 1 1 4 4 4 4 4 6 8 9 11 11 9 9 9 9 10 9 8 8 12 17 21 23 25 26 28 29 29 31 31 31 31 31 33 32 31 31 30 30 31 30 29 28 27 28 28 29 28 27 26 23 21 19 17 16 15 14 13 12 11 11 11 11 10 8 6 5 5 5 4 3 2 2 2 2 3 5 6 7 6 6
1 2 2 3 2 1 2 1 1 1 1 1 2 2 2 1 1 3 5 5 3 3 5 7 8 10 10 9 9 9 9 9 8 8 9 12 17 21 23 24 26 28 29 29 30 30 30 30 31 32 33 32 32 31 30 31 30 28 27 27 28 29 29 29 28 26 24 22 20 18 17 17 16 15 14 12 12 12 12 11 9 8 7 7 7 5 4 3 2 2 1 2 4 5 6 5 5
2 1 2 1 1 1 1 1 1 1 0 1 2 3 2 0 1 2 3 3 2 2 5 6 8 9 9 7 8 9 8 8 8 8 8 10 15 19 20 21 23 25 26 26 27 28 28 30 30 31 32 33 32 30 30 30 30 29 28 28 28 28 30 30 29 26 25 23 21 20 19 18 17 17 16 14 13 13 13 13 11 9 8 8 8 6 5 4 3 2 1 1 2 4 5 4 4
1 1 1 1 1 1 1 1 1 1 1 1 1 3 2 1 1 1 1 1 2 1 3 6 7 8 7 7 7 8 8 8 8 9 8 9 15 18 20 20 21 23 24 25 26 28 29 29 29 30 31 31 31 31 30 30 29 29 28 28 28 30 31 31 29 27 25 23 22 21 21 19 19 19 18 16 14 13 14 14 13 11 10 10 9 8 6 5 4 3 2 1 1 2 3 3 4
1 2 3 2 2 1 0 1 1 0 1 1 1 0 2 2 2 2 2 2 0 1 1 3 6 6 6 6 6 6 7 7 8 8 8 10 14 17 18 19 21 22 24 25 27 28 29 29 30 30 30 30 31 31 31 30 30 29 29 29 30 31 32 31 29 28 26 24 23 23 22 20 20 20 19 18 16 14 14 15 14 13 12 11 10 9 7 6 5 5 4 2 0 1 2 2 3
1 0 2 2 2 1 1 1 0 1 0 1 3 1 3 2 1 3 3 2 1 1 0 1 4 7 6 5 6 6 6 6 7 7 7 9 12 15 17 19 21 22 23 25 26 27 29 30 31 31 31 31 32 31 31 31 30 30 30 29 30 31 31 31 30 29 27 26 25 24 23 22 22 22 21 20 17 15 15 16 15 14 13 13 12 10 8 8 7 6 5 3 2 1 1 1 2
Wind_Direction
339 346 349 341 351 343 57 71 275 311 77 253 244 196 254 228 186 268 163 184 190 211 233 130 129 127 126 141 159 157 132 166 164 149 195 216 148 154 157 155 153 148 145 142 143 143 140 139 136 133 129 125 120 116 114 108 102 97 93 91 89 86 85 83 83 81 79 77 75 75 73 73 71 70 69 67 66 65 65 63 63 61 61 60 59 59 58 58 59 59 58 57 57 56 58 59 59
334 340 352 343 18 67 206 89 186 291 313 260 244 167 250 312 39 242 208 208 214 166 156 112 109 89 61 98 121 127 74 15 178 170 81 137 142 151 155 154 151 147 144 143 146 144 141 141 137 134 130 128 123 119 115 109 104 98 96 95 95 92 89 85 84 83 81 79 77 76 74 73 72 69 68 66 66 66 66 65 64 63 62 61 60 59 57 57 58 59 59 58 58 57 58 60 60
333 338 354 352 24 46 97 55 172 192 237 245 249 209 243 42 225 243 233 216 144 126 129 111 100 66 48 88 105 114 143 301 174 169 116 142 143 150 155 152 150 147 145 146 148 144 143 143 139 135 132 130 126 123 117 111 106 101 99 96 97 95 91 88 85 83 81 80 77 76 75 72 71 69 68 67 66 66 65 66 65 64 63 62 61 59 58 57 58 59 59 59 58 58 58 59 59
332 340 348 4 58 32 76 88 174 181 229 231 249 240 191 209 233 249 248 164 139 135 132 124 117 47 67 139 155 89 144 178 165 156 132 153 154 151 153 150 149 146 147 149 149 146 145 145 140 136 133 131 127 125 120 114 108 104 103 99 99 97 95 91 87 85 81 80 78 77 75 72 71 69 67 67 67 66 65 65 64 64 64 63 61 60 59 57 58 58 59 59 58 59 58 57 57
326 339 351 25 107 42 106 157 135 188 224 189 209 241 204 220 224 167 140 149 154 151 179 141 126 33 87 142 186 129 144 123 145 161 137 157 158 152 151 149 148 147 149 151 150 149 147 146 140 137 134 131 128 125 122 117 111 108 107 105 103 101 98 94 89 86 83 81 80 78 75 74 72 70 68 67 66 65 64 63 63 63 63 63 62 61 60 57 57 57 57 59 59 59 58 57 55
327 344 16 44 102 112 127 221 204 216 228 162 190 236 199 219 200 160 154 169 166 69 80 171 131 122 133 67 218 222 167 129 149 157 146 157 159 153 151 150 149 149 151 152 152 150 147 145 140 137 134 131 129 126 122 118 116 114 111 107 104 101 98 96 91 87 86 84 82 80 76 76 74 70 67 66 65 64 63 63 61 62 62 62 63 62 61 59 57 57 57 58 59 59 59 58 56
348 329 20 61 67 37 152 224 223 223 231 181 186 192 188 214 175 152 159 176 163 93 76 182 139 117 124 138 169 260 26 136 138 151 158 159 158 153 151 151 149 149 152 153 152 149 147 145 140 137 135 132 129 127 123 123 122 118 113 109 105 102 99 98 94 89 88 88 85 82 80 77 72 69 67 65 64 63 62 62 61 60 61 62 63 62 62 61 59 58 58 58 58 58 58 58 58
7 294 20 92 144 5 161 231 235 215 237 215 200 191 186 190 162 154 177 195 185 182 119 167 171 112 174 97 127 232 120 139 129 150 162 158 156 153 152 152 149 149 151 153 150 148 147 144 141 137 136 132 129 129 129 129 126 119 114 110 108 104 102 100 97 93 90 90 89 86 82 76 71 68 66 64 64 64 63 62 61 61 62 63 63 63 62 62 61 60 59 58 56 55 55 54 58
37 65 69 111 176 268 222 242 248 225 241 240 227 211 170 167 162 158 177 217 224 163 150 174 200 151 159 102 75 247 157 152 135 149 160 156 155 152 151 152 150 150 151 152 150 148 146 144 141 138 136 133 132 136 136 132 126 120 115 111 110 106 104 100 98 97 94 92 91 89 83 78 76 74 69 66 65 64 64 63 62 63 63 63 64 62 61 61 61 61 60 58 56 53 52 52 57
45 30 159 138 142 225 238 226 239 234 226 231 239 216 159 161 162 171 177 194 178 135 169 165 84 140 142 118 113 184 166 150 141 150 159 156 155 152 150 152 152 150 150 151 151 149 147 144 143 141 139 134 137 142 138 133 127 122 117 113 111 107 105 102 99 98 97 94 90 87 81 79 79 80 77 73 69 66 66 65 64 65 65 64 63 61 59 59 58 58 57 57 57 54 52 52 53
70 352 130 186 199 220 231 224 234 234 245 274 271 223 184 168 154 162 157 158 167 146 180 188 92 133 117 116 165 157 162 152 148 154 158 156 155 152 150 151 152 151 150 151 151 149 147 146 145 144 140 136 140 142 137 134 130 124 120 116 112 110 108 104 102 100 99 96 89 84 77 76 74 76 79 80 78 71 66 65 66 66 65 65 64 60 57 57 57 56 54 54 57 57 52 51 49
166 300 116 209 215 222 222 230 243 243 260 239 255 246 186 165 150 152 159 178 175 156 191 202 167 141 103 124 176 136 166 157 154 156 157 156 153 151 150 150 152 152 152 152 151 149 148 149 148 147 142 138 141 142 139 136 132 127 124 119 116 113 110 106 103 101 99 94 87 81 74 70 67 68 72 79 84 82 74 66 67 70 67 68 66 61 57 55 54 54 53 53 58 58 52 51 49
178 157 133 214 203 205 206 230 242 240 256 206 214 245 163 165 172 176 174 180 156 156 210 191 161 131 105 148 182 166 186 160 155 157 156 154 151 150 149 150 153 153 153 153 152 151 151 151 150 148 143 142 144 142 141 139 135 131 127 122 119 116 111 106 100 98 96 91 84 78 71 62 58 59 65 74 81 88 87 78 74 74 71 69 66 60 56 52 50 50 51 54 60 60 55 56 53
282 159 148 232 249 194 204 232 220 226 248 192 205 238 153 181 199 190 165 163 172 178 195 149 152 131 96 146 177 190 191 160 155 157 154 150 149 148 149 151 154 153 154 155 154 154 154 154 152 149 146 146 147 144 143 140 138 134 129 124 120 116 109 103 97 96 93 88 81 74 66 56 52 50 56 68 75 82 89 89 84 74 70 67 62 57 52 48 46 46 48 51 63 67 62 59 59
301 159 124 240 269 214 207 224 195 225 245 171 209 211 191 222 187 193 177 177 197 203 123 129 165 209 164 175 191 187 178 159 155 156 149 147 146 146 149 151 154 154 157 158 157 157 156 156 154 152 151 151 151 148 145 141 140 137 131 126 120 114 106 100 96 95 92 86 77 71 62 52 49 46 48 56 68 75 78 81 77 68 63 61 56 51 47 44 43 43 45 48 62 77 75 67 66
78 98 68 237 228 212 214 215 173 226 244 209 232 192 199 261 93 177 228 178 154 161 121 146 190 216 181 189 164 161 165 157 152 152 147 144 143 144 147 150 153 155 158 160 159 160 159 157 155 154 154 154 155 152 148 146 144 140 133 127 120 112 104 98 95 91 88 83 74 66 59 53 49 47 48 50 60 68 70 68 65 63 58 54 48 42 42 41 41 40 42 50 58 75 85 80 77
26 76 186 247 220 202 215 186 186 222 236 246 252 180 195 248 346 160 299 67 119 125 41 56 247 33 250 184 141 152 158 154 150 149 146 144 142 142 145 149 152 154 157 160 160 161 160 159 157 156 156 157 157 154 152 149 145 141 134 127 118 110 102 97 93 89 86 81 76 68 59 55 49 48 49 51 59 66 70 67 63 62 57 52 44 38 39 38 39 41 40 48 56 64 78 83 84
29 94 219 249 188 179 224 106 279 310 0 320 293 227 203 217 214 169 92 45 85 93 27 9 24 26 22 131 142 151 154 152 150 149 147 148 146 143 145 150 151 151 154 157 160 163 162 161 160 159 159 159 159 156 154 149 145 141 133 126 118 109 102 98 94 91 88 83 77 68 59 54 48 47 50 53 61 66 69 67 64 61 57 53 45 40 39 37 37 41 44 46 53 60 70 79 84
79 136 258 254 128 308 335 46 11 7 349 327 322 339 310 240 211 173 180 157 139 138 72 29 56 82 111 132 143 149 152 154 154 153 152 153 152 148 147 150 152 152 153 156 159 164 165 162 162 162 161 160 159 156 154 150 146 141 134 128 119 112 106 101 97 92 87 83 75 63 55 49 44 45 49 54 61 67 69 67 64 60 55 51 47 41 39 41 38 37 43 47 50 55 63 75 85
32 131 271 259 333 311 335 34 11 1 343 332 325 334 324 288 300 218 186 172 179 179 168 150 170 162 145 146 147 150 155 157 158 157 156 156 155 153 151 152 155 155 156 158 160 164 167 164 163 164 162 160 160 157 154 152 148 142 136 129 121 116 110 102 96 92 86 82 72 59 50 45 40 41 47 54 62 68 67 65 60 56 52 47 46 42 40 43 39 36 39 43 48 51 58 69 84
350 108 190 263 334 317 308 342 355 356 340 331 321 323 318 305 314 285 175 162 207 205 185 179 183 173 158 156 152 154 158 159 160 159 158 157 156 157 157 159 160 159 159 160 162 164 167 166 164 164 162 161 161 159 156 154 149 144 136 131 126 118 109 103 97 91 86 81 72 61 49 43 39 42 50 57 65 66 65 64 59 54 49 45 45 43 43 44 41 37 34 38 44 49 56 65 79
342 247 191 280 351 325 301 322 346 354 336 327 327 320 312 313 304 268 203 196 219 207 210 206 186 170 159 158 158 158 160 161 163 163 162 160 159 160 160 160 160 161 160 161 163 164 167 168 166 164 161 161 163 161 158 154 149 143 136 132 128 118 109 103 98 91 87 83 74 63 49 41 38 44 53 59 68 69 69 66 59 52 46 46 47 44 45 44 41 38 32 31 37 46 55 62 73
340 293 296 313 22 327 302 318 325 341 341 319 318 309 313 318 302 265 223 235 259 254 235 218 182 174 164 158 158 160 164 167 169 170 168 165 163 163 161 159 160 161 161 162 164 165 167 167 165 164 161 161 163 161 158 153 149 143 136 132 126 117 110 105 99 92 89 85 76 65 50 39 38 44 51 60 69 71 73 69 58 50 46 46 48 46 45 43 40 37 32 29 32 42 53 62 68
146 268 301 316 345 303 298 311 313 323 311 283 287 304 309 295 293 312 248 248 264 312 294 150 152 174 169 160 160 167 172 174 175 174 171 168 166 164 161 161 163 162 161 161 164 166 167 166 164 164 163 163 163 160 158 153 148 142 134 131 126 118 112 107 100 94 90 85 78 68 54 40 38 41 49 59 66 71 73 66 56 48 45 46 46 45 43 41 38 34 30 29 31 38 47 59 68
173 237 296 313 311 297 300 308 308 308 295 279 285 289 276 264 283 303 265 256 250 295 276 146 142 165 175 172 170 171 175 175 172 168 168 168 164 161 161 163 163 163 163 162 164 167 166 165 164 164 164 164 162 161 160 154 147 140 134 134 129 121 118 111 101 97 93 87 80 71 57 44 39 39 46 56 62 71 72 62 53 47 45 46 45 44 43 39 36 32 27 25 26 30 37 46 60
207 250 294 307 302 293 299 301 299 301 295 293 298 286 268 257 288 283 254 256 260 191 163 150 146 168 182 182 180 175 175 172 166 163 162 163 161 159 161 164 164 165 165 163 164 166 165 164 163 164 165 164 164 163 161 154 149 145 141 141 135 128 124 113 105 102 96 90 82 71 59 46 41 40 45 54 62 69 67 59 51 47 45 48 48 45 43 38 35 31 25 21 18 20 25 32 47
266 287 293 295 291 283 281 282 285 295 290 272 274 277 273 247 210 256 258 251 246 152 148 162 158 175 188 187 187 179 175 171 166 160 153 156 161 162 162 165 165 165 165 162 164 164 163 162 161 162 163 162 164 163 160 155 152 149 144 144 138 134 129 116 110 105 99 93 83 71 58 48 41 41 45 52 62 67 65 57 50 48 46 48 49 46 43 37 32 27 21 17 12 11 15 21 35
298 300 310 292 287 287 266 264 270 278 284 262 244 271 276 249 209 230 239 232 233 169 154 169 169 179 191 190 185 180 178 171 164 159 157 162 167 167 166 167 166 165 166 163 163 163 161 162 162 162 161 162 166 163 159 157 153 148 145 145 142 138 130 120 115 108 102 91 82 70 57 48 41 41 44 51 61 68 66 58 50 49 48 47 45 43 40 33 29 25 19 16 11 9 7 11 30
292 293 311 293 305 298 259 244 243 231 254 273 301 289 263 247 234 207 200 201 208 195 166 171 179 182 190 190 183 180 174 165 163 166 168 168 168 169 169 170 168 165 165 162 161 161 161 162 161 162 165 168 170 166 162 159 153 149 149 149 146 142 133 128 124 112 100 88 78 66 57 48 42 40 42 50 60 68 65 56 51 48 47 45 42 42 38 32 28 23 20 16 11 10 7 10 28
310 290 251 298 329 293 255 236 235 227 231 233 254 278 251 245 246 192 174 179 187 201 184 180 183 182 188 190 183 177 166 163 167 170 170 166 167 169 169 170 167 162 161 160 160 161 162 163 162 164 168 168 167 165 163 158 152 153 157 157 152 148 141 139 133 116 99 87 73 64 59 47 42 39 39 47 56 65 62 53 50 49 47 41 40 43 40 34 30 25 22 17 12 10 9 15 34
321 299 238 306 312 281 281 284 232 230 249 207 188 252 250 246 267 213 182 174 179 194 197 190 181 180 185 183 175 166 161 163 164 162 163 164 165 168 168 165 162 160 159 160 161 161 161 161 163 164 165 164 164 163 161 155 152 157 164 164 158 154 151 154 144 120 100 87 71 62 57 47 42 38 36 44 52 61 58 50 47 47 46 39 36 38 39 38 32 27 25 22 20 16 13 20 42
353 284 296 313 225 279 311 297 201 204 268 208 185 246 254 220 243 228 207 191 182 190 202 197 186 183 181 175 167 159 149 149 149 151 157 161 162 166 167 162 162 162 159 158 159 158 157 158 161 162 163 165 164 161 158 154 155 162 170 173 171 167 164 172 159 127 104 87 73 61 55 47 41 37 35 40 50 60 57 48 42 43 44 37 33 33 36 38 36 30 25 24 23 21 20 25 47
336 213 262 271 239 289 317 296 235 205 258 249 214 242 281 219 229 207 210 208 195 197 203 196 192 189 181 169 160 153 138 135 139 147 155 159 161 165 165 163 164 162 159 158 158 156 154 157 163 165 166 168 165 163 161 159 160 165 175 191 194 184 181 186 174 146 114 87 75 61 55 48 40 37 34 37 51 60 57 46 39 42 39 33 29 27 33 37 37 33 28 28 23 20 22 31 52
306 233 243 258 243 266 298 297 295 196 204 239 241 247 255 269 293 204 206 206 202 205 205 197 193 191 179 160 153 148 142 146 147 151 154 156 158 162 163 162 161 160 160 160 159 157 155 159 166 168 168 169 168 167 165 164 166 167 176 199 203 192 192 195 184 168 143 92 76 61 55 48 40 37 33 36 50 59 57 44 37 40 35 30 23 25 35 36 37 35 32 31 24 20 22 29 48
234 228 239 263 245 242 255 267 289 31 213 238 259 260 254 266 279 256 219 212 209 207 204 199 194 191 179 163 163 162 160 159 151 149 152 153 154 157 158 158 158 159 159 158 159 159 159 162 166 168 170 170 171 171 167 167 167 167 177 200 208 200 199 200 194 191 179 116 75 60 53 46 40 35 32 35 47 57 53 38 38 39 36 32 23 27 37 38 40 40 38 35 28 27 26 28 46
220 223 224 242 256 246 241 252 263 328 291 256 258 263 260 264 263 255 230 221 220 213 205 203 200 192 177 170 173 171 165 152 141 145 148 150 152 153 154 156 156 158 159 158 158 158 160 164 167 170 173 174 175 173 170 168 166 169 186 205 207 202 203 205 202 202 199 169 87 58 50 44 40 34 30 33 46 56 47 37 40 38 37 34 24 28 35 37 39 40 41 39 35 37 34 34 42
214 217 232 233 248 256 249 255 252 167 261 263 249 254 255 254 256 249 229 219 220 216 207 205 204 188 172 173 170 161 151 132 135 142 145 148 151 152 152 154 155 156 159 161 160 161 163 167 171 173 175 178 179 176 173 171 169 175 193 206 207 205 208 211 208 208 209 199 143 61 46 41 39 34 29 32 46 53 38 36 37 37 38 32 27 29 32 34 36 37 38 37 36 35 36 35 37
225 228 255 258 244 255 257 248 251 160 158 269 267 268 261 246 252 250 229 214 217 217 208 205 202 182 168 170 160 143 125 118 131 137 142 148 150 153 154 156 159 159 162 166 165 167 169 172 175 177 177 180 182 182 181 176 174 181 197 209 211 208 210 215 216 217 214 210 203 82 42 39 37 32 28 33 48 49 30 30 32 35 35 32 33 32 33 36 36 37 34 36 37 34 35 33 33
229 226 244 260 240 257 272 258 256 212 163 263 266 267 265 247 243 242 229 217 214 214 206 204 200 182 168 166 153 135 127 130 138 137 143 150 152 154 156 159 163 164 165 168 169 171 174 176 178 179 179 180 183 187 187 180 178 188 206 219 219 212 214 217 219 223 219 216 222 226 21 34 36 30 27 34 53 52 21 25 31 34 34 36 37 32 35 38 37 38 35 37 40 38 37 31 30
222 215 221 247 222 174 261 269 245 189 185 235 258 266 270 257 248 241 230 223 219 212 203 202 201 190 177 168 155 148 147 147 150 144 145 151 153 157 160 163 166 166 168 170 171 174 176 178 178 179 179 181 185 186 185 181 183 196 213 225 225 218 221 221 219 224 222 217 224 230 261 21 34 29 26 31 54 62 20 29 33 34 38 40 39 33 37 42 40 39 36 37 39 41 40 33 33
219 214 214 240 231 196 230 267 356 320 217 226 242 286 280 244 243 246 227 218 223 212 199 201 201 185 165 155 151 154 151 149 151 150 151 155 159 165 167 167 168 170 172 173 174 176 177 177 179 183 184 187 190 188 186 185 186 201 214 218 216 214 219 221 219 221 220 216 220 227 235 285 21 24 21 22 58 79 20 27 30 33 38 40 40 34 37 44 43 42 39 36 37 41 42 38 39
233 221 218 233 236 216 230 261 350 330 274 219 179 232 272 213 221 236 215 209 215 201 192 193 181 159 150 151 154 151 144 150 155 152 154 159 162 167 170 171 173 174 176 177 177 178 178 179 181 185 188 190 192 191 191 189 189 203 215 214 209 210 215 220 221 222 221 218 218 223 228 236 292 356 6 9 56 69 13 14 20 30 38 40 39 35 38 44 45 45 43 38 37 40 40 40 45
258 219 209 224 228 221 223 196 162 228 268 234 164 193 264 232 219 218 203 209 209 194 184 179 165 158 159 159 159 151 142 149 156 150 153 161 166 170 174 178 179 178 179 180 180 180 181 182 184 187 191 193 193 193 193 192 194 206 218 220 219 222 224 227 229 228 226 222 221 222 223 227 239 280 321 306 219 194 348 350 11 34 39 40 39 36 38 42 44 45 44 42 42 41 37 41 48
258 178 182 206 214 219 216 194 198 231 286 290 195 199 241 263 238 201 191 207 210 201 193 177 164 161 158 160 161 153 147 150 153 157 162 170 174 175 178 181 182 181 181 180 181 183 184 185 187 189 192 194 196 197 194 193 198 207 218 222 224 230 234 236 236 231 225 223 223 223 223 226 231 246 261 250 211 204 243 295 16 41 42 39 39 38 38 41 43 44 44 43 42 42 41 44 50
247 35 170 188 199 212 204 197 221 238 273 274 209 187 214 260 252 180 179 201 212 205 199 186 170 164 157 158 161 153 156 160 159 164 171 176 178 179 180 180 181 182 183 183 183 185 186 187 189 190 193 195 198 199 195 195 202 210 217 221 225 231 236 238 238 235 226 220 222 224 225 229 232 238 244 240 214 211 226 231 46 46 45 40 39 40 39 41 42 43 45 44 40 40 44 47 52
260 13 192 163 169 193 182 198 224 222 233 256 209 175 197 250 213 177 180 199 210 202 194 188 177 172 165 158 158 156 160 166 167 169 175 180 180 179 178 177 179 183 186 186 186 186 187 189 190 192 195 196 197 199 198 199 205 212 217 221 226 230 234 236 237 236 227 222 223 224 225 229 235 239 239 237 221 214 222 214 77 57 47 40 44 42 40 42 43 46 47 45 41 41 46 48 51
269 357 225 182 158 163 167 200 220 227 236 243 200 178 198 256 194 189 191 195 200 192 183 183 177 174 170 162 159 161 166 171 172 172 175 178 176 175 176 177 180 185 188 189 189 189 190 191 192 193 196 196 197 200 201 203 209 215 217 220 224 229 234 235 235 233 226 222 222 222 224 229 236 241 239 238 228 219 220 205 111 76 55 45 53 45 42 44 45 49 50 48 44 43 48 49 50
248 297 262 231 177 160 178 193 196 223 254 251 196 174 185 231 215 200 205 191 186 189 184 176 175 175 175 170 165 167 170 171 169 167 169 167 166 174 180 180 181 185 188 190 190 190 192 193 192 192 193 195 198 203 206 207 211 217 219 221 224 229 234 236 237 235 229 227 225 221 222 226 234 242 241 239 231 223 219 198 152 120 77 57 61 52 49 50 48 51 53 52 49 48 50 49 50
220 231 267 250 186 174 212 204 207 224 244 253 180 161 174 229 235 213 212 198 179 182 185 181 182 181 178 172 167 167 165 163 165 166 167 167 170 178 181 179 180 184 188 189 190 191 192 194 194 193 194 196 200 205 208 210 213 218 221 222 224 228 235 239 240 239 235 234 231 225 224 227 232 241 245 243 234 225 218 198 175 166 128 85 92 79 65 58 53 55 57 55 53 52 52 49 50
223 212 234 237 206 227 228 205 223 233 235 201 136 152 202 255 241 207 206 213 187 173 180 181 180 173 167 161 156 158 160 162 169 173 174 174 175 178 179 180 182 185 188 189 190 192 192 193 194 195 196 198 202 207 209 211 215 220 222 223 223 227 234 239 241 240 238 238 237 232 232 234 235 239 244 247 241 228 217 203 188 180 163 155 162 133 86 70 61 60 62 59 56 53 51 48 49
257 233 239 263 253 242 254 222 216 233 212 122 125 155 215 163 193 239 216 223 296 219 153 146 143 139 140 142 147 156 161 167 175 178 179 178 178 178 180 184 186 187 188 189 191 192 193 194 195 195 196 199 204 208 211 214 217 220 223 224 224 228 235 239 241 241 240 240 241 237 235 237 237 235 233 244 247 232 218 209 197 182 174 184 185 161 114 85 74 68 66 62 58 55 50 45 48
240 254 269 298 333 343 280 254 235 214 103 128 143 170 248 155 307 307 277 125 65 74 119 130 136 137 137 144 159 164 166 174 180 181 181 180 180 181 183 185 187 187 189 191 192 193 194 195 195 196 198 201 204 208 212 214 216 218 222 225 225 228 234 238 239 239 240 242 244 241 238 239 237 230 227 239 246 234 220 213 202 185 180 196 192 174 155 113 94 79 67 64 61 58 51 44 48
302 294 316 302 294 262 274 264 260 266 92 22 252 262 331 19 16 348 23 73 73 86 121 138 144 147 151 161 171 173 174 179 181 179 181 181 181 184 187 188 187 188 190 192 194 195 195 195 195 196 199 201 206 210 212 212 213 218 223 226 227 229 233 237 238 238 239 242 244 241 237 238 234 228 228 235 242 235 222 214 204 190 190 199 194 186 176 144 121 99 73 64 62 60 54 47 48
314 321 326 296 255 219 271 282 330 2 76 330 333 340 334 44 74 358 36 70 83 115 134 142 150 158 166 171 174 176 176 175 172 174 182 185 185 187 189 190 189 190 192 194 196 196 197 198 198 197 199 202 207 211 212 212 214 220 225 226 227 229 234 238 238 238 239 241 244 239 234 236 234 229 229 231 235 233 224 215 205 194 198 200 194 192 183 165 154 140 106 70 65 59 53 49 49
214 286 333 324 278 276 296 262 296 352 350 291 348 347 316 189 129 355 29 64 89 146 156 153 159 169 173 173 175 175 170 167 170 178 186 188 190 191 190 189 190 191 194 195 197 197 199 202 202 201 202 205 208 212 213 214 217 221 224 227 228 230 234 237 237 237 238 241 244 240 235 237 234 229 230 231 231 231 226 217 206 198 201 201 197 194 187 179 176 174 177 88 70 59 52 51 47
212 297 18 111 238 274 309 298 304 324 218 225 10 6 329 271 235 261 343 8 48 107 177 168 169 178 176 173 178 175 173 175 177 182 187 187 191 193 191 189 188 190 193 195 196 198 200 203 203 203 204 206 209 213 215 215 217 222 226 229 231 231 234 236 236 236 239 242 244 240 236 237 235 230 231 233 230 228 228 221 209 203 203 201 199 196 192 190 187 190 202 194 73 53 52 49 44
2 2 7 351 299 315 294 278 301 130 171 163 113 46 288 271 245 262 307 310 35 98 223 181 169 179 181 176 178 178 178 180 178 179 184 186 188 188 187 187 187 189 192 194 196 198 200 202 203 203 204 205 209 214 216 215 217 222 226 229 231 232 234 235 235 236 239 241 242 239 237 238 237 233 232 234 229 224 227 223 213 208 206 202 201 199 198 199 196 201 209 209 214 38 45 37 36
87 80 26 331 303 335 327 293 57 98 119 174 159 173 282 290 299 302 305 300 282 141 292 248 170 176 184 174 172 175 176 178 175 174 177 177 176 175 178 183 186 188 191 193 196 198 200 202 203 203 205 207 211 213 214 216 218 221 225 227 230 233 235 234 233 234 237 238 239 237 236 237 238 235 234 234 230 223 225 223 214 211 208 202 201 203 205 205 203 208 215 215 229 272 358 7 14